Tracking 29892 objects as of 21-Nov-2024
HD Live streaming from Space Station
objects crossing your sky now

ONEWEB-0296

Track ONEWEB-0296 now!
10-day predictions
ONEWEB-0296 is classified as:


NORAD ID: 49085
Int'l Code: 2021-075L
Perigee: 1,220.0 km
Apogee: 1,221.8 km
Inclination: 87.9 °
Period: 109.7 minutes
Semi major axis: 7591 km
RCS: Unknown
Launch date: August 21, 2021
Source: United Kingdom (UK)
Launch site: TYURATAM MISSILE AND SPACE COMPLEX (TTMTR)
Your satellite tracking list
Your tracking list is empty




NASA's NSSDC Master Catalog

Two Line Element Set (TLE):
1 49085U 21075L   24325.85400907  .00000251  00000-0  66215-3 0  9991
2 49085  87.8861 104.8379 0001174 126.4029 233.7208 13.12441716159375
Source of the keplerian elements: AFSPC